Date String (YYYY-MM-DD hh:mm:ss) UTC,Instrument flags,Ambient pressure (hPa),Sample flow (lpm),Bypass flow (lpm),Sample temperature (°C),Ambient temperature (°C),ASC tube jacket temperature (°C),LED temperature (°C),Box temperature (°C),Sample RH (%),Span deviation,Mass concentration (μg/m³),Mass concentration (μg/m³),Mass concentration (μg/m³)
DateTimeUTC,F1_M11,P_M11,Q1_M11,Q2_M11,T1_M11,T2_M11,T3_M11,T4_M11,T5_M11,U1_M11,ZSPAN_M11,X2_M11,X0_M11,X1_M11
2022-11-01 23:00:00,,0820.2,4.99,0.00,29.9,28.9,00.0,38.6,31.8,09.6,0000.0,0003.69,0016.29,0002.47
2022-11-01 23:01:00,,0820.2,5.01,0.00,29.9,28.1,00.0,38.6,31.8,09.6,0000.0,0003.71,0016.65,0002.51
2022-11-01 23:02:00,,0820.2,4.98,0.00,29.9,26.9,00.0,38.6,31.6,09.5,0000.0,0003.70,0016.81,0002.53
2022-11-01 23:03:00,,0820.2,5.01,0.00,29.8,26.7,00.0,38.5,31.5,09.5,0000.0,0003.75,0017.25,0002.55
2022-11-01 23:04:00,,0820.2,5.00,0.00,29.7,26.9,00.0,38.5,31.4,09.6,0000.0,0003.83,0017.83,0002.56
2022-11-01 23:05:00,,0820.2,5.00,0.00,29.7,27.2,00.0,38.5,31.3,09.6,0000.0,0003.91,0017.23,0002.57
2022-11-01 23:06:00,,0820.2,5.00,0.00,29.7,27.5,00.0,38.5,31.4,09.7,0000.0,0003.92,0016.92,0002.58
2022-11-01 23:07:00,,0820.2,5.01,0.00,29.6,27.7,00.0,38.5,31.4,09.7,0000.0,0003.92,0017.27,0002.59
2022-11-01 23:08:00,,0820.2,4.99,0.00,29.6,27.9,00.0,38.5,31.4,09.7,0000.0,0003.93,0015.67,0002.61
2022-11-01 23:09:00,,0820.2,4.99,0.00,29.6,28.1,00.0,38.5,31.5,09.6,0000.0,0003.88,0015.38,0002.59
2022-11-01 23:10:00,,0820.2,5.01,0.00,29.7,28.2,00.0,38.5,31.5,09.6,0000.0,0003.93,0016.09,0002.58
2022-11-01 23:11:00,,0820.2,5.00,0.00,29.7,28.3,00.0,38.5,31.5,09.6,0000.0,0003.92,0015.74,0002.56
2022-11-01 23:12:00,,0820.2,5.00,0.00,29.7,28.4,00.0,38.5,31.5,09.7,0000.0,0004.02,0015.39,0002.55
2022-11-01 23:13:00,,0820.2,5.00,0.00,29.7,28.5,00.0,38.5,31.6,09.7,0000.0,0004.02,0014.73,0002.53
2022-11-01 23:14:00,,0820.2,5.00,0.00,29.7,28.6,00.0,38.5,31.6,09.6,0000.0,0004.01,0013.68,0002.53
2022-11-01 23:15:00,,0820.2,4.99,0.00,29.8,28.6,00.0,38.5,31.7,09.5,0000.0,0003.97,0013.37,0002.53
2022-11-01 23:16:00,,0820.2,5.01,0.00,29.8,28.7,00.0,38.5,31.7,09.5,0000.0,0003.90,0013.15,0002.54
2022-11-01 23:17:00,,0820.2,5.00,0.00,29.8,28.7,00.0,38.5,31.7,09.5,0000.0,0003.87,0013.30,0002.52
2022-11-01 23:18:00,,0820.2,5.01,0.00,29.8,28.8,00.0,38.6,31.7,09.4,0000.0,0003.85,0012.44,0002.53
2022-11-01 23:19:00,,0820.2,5.00,0.00,29.9,28.8,00.0,38.6,31.7,09.4,0000.0,0003.81,0012.62,0002.51
2022-11-01 23:20:00,,0820.1,4.99,0.00,29.9,28.8,00.0,38.6,31.8,09.4,0000.0,0003.86,0012.99,0002.52
2022-11-01 23:21:00,,0820.2,5.00,0.00,29.9,28.9,00.0,38.6,31.8,09.4,0000.0,0003.82,0012.49,0002.52
2022-11-01 23:22:00,,0820.2,5.00,0.00,29.9,28.9,00.0,38.6,31.9,09.4,0000.0,0003.80,0013.87,0002.53
2022-11-01 23:23:00,,0820.2,5.00,0.00,30.0,28.9,00.0,38.7,31.9,09.5,0000.0,0003.74,0013.33,0002.53
2022-11-01 23:24:00,,0820.2,5.01,0.00,30.0,27.9,00.0,38.6,31.8,09.5,0000.0,0003.73,0014.27,0002.53
2022-11-01 23:25:00,,0820.1,5.00,0.00,29.9,26.6,00.0,38.6,31.6,09.5,0000.0,0003.71,0015.47,0002.54
2022-11-01 23:26:00,,0820.1,5.01,0.00,29.9,26.4,00.0,38.5,31.5,09.5,0000.0,0003.73,0016.34,0002.55
2022-11-01 23:27:00,,0820.1,4.99,0.00,29.7,26.7,00.0,38.5,31.3,09.6,0000.0,0003.75,0016.38,0002.55
2022-11-01 23:28:00,,0820.1,5.01,0.00,29.7,27.1,00.0,38.5,31.3,09.7,0000.0,0003.81,0016.24,0002.57
2022-11-01 23:29:00,,0820.0,4.99,0.00,29.7,27.4,00.0,38.5,31.4,09.7,0000.0,0003.85,0016.92,0002.57
2022-11-01 23:30:00,,0820.0,5.00,0.00,29.6,27.6,00.0,38.5,31.4,09.8,0000.0,0003.90,0017.37,0002.57
2022-11-01 23:31:00,,0820.0,5.00,0.00,29.6,27.8,00.0,38.5,31.4,09.7,0000.0,0003.86,0016.95,0002.56
2022-11-01 23:32:00,,0820.0,5.01,0.00,29.6,28.0,00.0,38.5,31.4,09.7,0000.0,0003.88,0017.42,0002.56
2022-11-01 23:33:00,,0820.0,4.99,0.00,29.6,28.1,00.0,38.5,31.5,09.7,0000.0,0003.87,0015.61,0002.54
2022-11-01 23:34:00,,0819.9,4.99,0.00,29.6,28.2,00.0,38.5,31.5,09.8,0000.0,0003.87,0016.04,0002.52
2022-11-01 23:35:00,,0819.9,5.00,0.00,29.7,28.3,00.0,38.5,31.5,09.8,0000.0,0003.95,0016.03,0002.54
2022-11-01 23:36:00,,0819.9,5.02,0.00,29.7,28.4,00.0,38.5,31.5,09.8,0000.0,0004.02,0015.74,0002.53
2022-11-01 23:37:00,,0820.0,4.99,0.00,29.7,28.5,00.0,38.5,31.6,09.8,0000.0,0004.01,0014.94,0002.52
2022-11-01 23:38:00,,0819.9,5.00,0.00,29.7,28.5,00.0,38.5,31.6,09.7,0000.0,0004.01,0015.32,0002.51
2022-11-01 23:39:00,,0820.0,5.00,0.00,29.7,28.5,00.0,38.5,31.6,09.7,0000.0,0004.00,0015.25,0002.50
2022-11-01 23:40:00,,0819.9,5.00,0.00,29.8,28.6,00.0,38.5,31.6,09.7,0000.0,0004.01,0015.07,0002.50
2022-11-01 23:41:00,,0819.9,5.00,0.00,29.8,28.6,00.0,38.5,31.6,09.6,0000.0,0003.99,0015.14,0002.51
2022-11-01 23:42:00,,0819.9,4.99,0.00,29.8,28.6,00.0,38.5,31.7,09.5,0000.0,0004.03,0015.42,0002.50
2022-11-01 23:43:00,,0819.9,5.00,0.00,29.8,28.7,00.0,38.6,31.7,09.6,0000.0,0004.01,0014.58,0002.49
2022-11-01 23:44:00,,0819.9,5.01,0.00,29.8,28.7,00.0,38.6,31.7,09.6,0000.0,0004.08,0014.41,0002.50
2022-11-01 23:45:00,,0819.9,4.99,0.00,29.9,28.7,00.0,38.6,31.7,09.5,0000.0,0004.07,0014.69,0002.50
2022-11-01 23:46:00,,0820.0,5.00,0.00,29.9,28.7,00.0,38.6,31.7,09.5,0000.0,0003.97,0014.31,0002.46
2022-11-01 23:47:00,,0819.9,5.00,0.00,29.9,28.8,00.0,38.6,31.7,09.6,0000.0,0003.91,0013.57,0002.45
2022-11-01 23:48:00,,0819.9,5.00,0.00,29.9,28.8,00.0,38.6,31.8,09.5,0000.0,0003.88,0013.88,0002.45
2022-11-01 23:49:00,,0819.9,5.00,0.00,29.9,28.8,00.0,38.6,31.8,09.5,0000.0,0003.86,0013.71,0002.44
2022-11-01 23:50:00,,0820.0,5.00,0.00,29.9,28.8,00.0,38.7,31.8,09.6,0000.0,0003.81,0014.12,0002.42
2022-11-01 23:51:00,,0820.0,5.00,0.00,30.0,28.9,00.0,38.7,31.8,09.6,0000.0,0003.74,0015.72,0002.38
2022-11-01 23:52:00,,0819.9,5.01,0.00,30.0,28.9,00.0,38.7,31.9,09.6,0000.0,0003.75,0015.22,0002.37
2022-11-01 23:53:00,,0819.9,4.99,0.00,30.0,28.9,00.0,38.7,31.9,09.5,0000.0,0003.75,0015.07,0002.36
2022-11-01 23:54:00,,0819.9,5.00,0.00,30.0,28.9,00.0,38.7,31.9,09.5,0000.0,0003.73,0015.29,0002.35
2022-11-01 23:55:00,,0819.9,5.00,0.00,30.0,28.9,00.0,38.8,31.9,09.6,0000.0,0003.68,0015.86,0002.34
2022-11-01 23:56:00,,0819.9,5.00,0.00,30.0,27.9,00.0,38.7,31.8,09.5,0000.0,0003.61,0015.43,0002.33
2022-11-01 23:57:00,,0820.0,5.01,0.00,30.0,26.5,00.0,38.7,31.7,09.6,0000.0,0003.63,0015.61,0002.34
2022-11-01 23:58:00,,0819.9,5.01,0.00,29.9,26.4,00.0,38.6,31.5,09.7,0000.0,0003.64,0015.54,0002.33
2022-11-01 23:59:00,,0819.9,4.99,0.00,29.8,26.7,00.0,38.6,31.4,09.7,0000.0,0003.69,0016.30,0002.32
